Regional Weather Roundup
Issued by NWS

Home | Current Version | Previous Version | Text Only | Print | Product List | Glossary On
Versions: 1 2 3 4 5 6 7 8 9 10 11 12 13 14 15 16 17 18 19 20 21 22 23 24 25 26 27 28 29 30 31 32 33 34 35 36 37 38 39 40 41 42 43 44 45 46 47 48 49 50
000
ASUS43 KLSX 060007
RWRMO

WEATHER SUMMARY FOR MISSOURI
NATIONAL WEATHER SERVICE SPRINGFIELD MO
600 PM CST THU MAR 05 2015

NOTE: "FAIR" INDICATES FEW OR NO CLOUDS BELOW 12,000 FEET WITH NO
       SIGNIFICANT WEATHER AND/OR OBSTRUCTIONS TO VISIBILITY.
       CURRENT SKY AND/OR WEATHER CONDITIONS ARE NOT AVAILABLE FOR
       CHILLICOTHE AND FARMINGTON.

MOZ001>031-035>038-043-044-053-054-060100-
...NORTHERN AND WESTERN MISSOURI...

CITY           SKY/WX    TMP DP  RH WIND       PRES   REMARKS
KANSAS CTY INT PTCLDY    29   5  36 S8        30.48S WCI  21
6HR MIN TEMP:  22; 6HR MAX TEMP:  32;

KANSAS C DTWN  CLEAR     33   3  28 CALM      30.50R
6HR MIN TEMP:  23; 6HR MAX TEMP:  34;

LEE`S SUMMIT   CLEAR     30   4  33 SW6       30.49S WCI  24
6HR MIN TEMP:  23; 6HR MAX TEMP:  33;

ST JOSEPH      CLEAR     29   6  38 S5        30.49F WCI  24
6HR MIN TEMP:  20; 6HR MAX TEMP:  30;

CHILLICOTHE      N/A     27   2  34 CALM      30.52S
6HR MIN TEMP:  21; 6HR MAX TEMP:  30;

KIRKSVILLE     CLEAR     23   2  40 CALM      30.51S
6HR MIN TEMP:  18; 6HR MAX TEMP:  27;


$$
MOZ066>068-077>081-088>096-101>105-060100-
...SOUTHWEST MISSOURI...

CITY           SKY/WX    TMP DP  RH WIND       PRES   REMARKS
SPRINGFIELD    CLEAR     32   9  38 NW3       30.49S
6HR MIN TEMP:  26; 6HR MAX TEMP:  33;

JOPLIN         CLEAR     34  12  40 CALM      30.52R
6HR MIN TEMP:  28; 6HR MAX TEMP:  36;


$$
MOZ032>034-039>042-045>050-055>058-069>072-060100-
...CENTRAL MISSOURI...

CITY           SKY/WX    TMP DP  RH WIND       PRES   REMARKS
COLUMBIA       CLEAR     26   8  46 N3        30.53R
6HR MIN TEMP:  22; 6HR MAX TEMP:  29; 6HR PCP: TRACE;

JEFFERSON CITY CLEAR     27   6  41 NW5       30.56R WCI  22
6HR MIN TEMP:  23; 6HR MAX TEMP:  29;

ROLLA          CLEAR     26   8  46 NW6       30.49R WCI  19
6HR MIN TEMP:  23; 6HR MAX TEMP:  29;

SEDALIA        CLEAR     28   7  41 CALM      30.53S
6HR MIN TEMP:  22; 6HR MAX TEMP:  30;

WHITEMAN AFB   CLEAR     27   9  46 E2        30.51S
WARRENSBURG    CLEAR     30   7  37 CALM      30.52R
OSAGE BEACH    CLEAR     28   7  40 N3        30.53R

$$
MOZ051-052-059>065-060100-
...EAST CENTRAL MISSOURI...

CITY           SKY/WX    TMP DP  RH WIND       PRES   REMARKS
ST LOUIS INTL  CLEAR     22   5  48 N6        30.57R WCI  14
6HR MIN TEMP:  22; 6HR MAX TEMP:  26;

SPIRIT OF STL  CLEAR     23   8  52 NW5       30.57R WCI  17
6HR MIN TEMP:  22; 6HR MAX TEMP:  27;

ST CHARLES     CLEAR     21   5  50 N3        30.58R
6HR MIN TEMP:  20; 6HR MAX TEMP:  24;


$$
MOZ072>076-082>087-097>100-106>115-060100-
...SOUTH CENTRAL AND SOUTHEAST MISSOURI...

CITY           SKY/WX    TMP DP  RH WIND       PRES   REMARKS
CAPE GIRARDEAU CLEAR     21   7  54 NE9       30.57R WCI  11
6HR MIN TEMP:  21; 6HR MAX TEMP:  26;

FARMINGTON     CLEAR     25   5  42 N5        30.55R WCI  19
6HR MIN TEMP:  25; 6HR MAX TEMP:  27;

POPLAR BLUFF   CLEAR     24   9  52 E6        30.56R WCI  17
6HR MIN TEMP:  24; 6HR MAX TEMP:  33;

WEST PLAINS    CLEAR     28   6  39 N6        30.50R WCI  22
6HR MIN TEMP:  27; 6HR MAX TEMP:  32;


$$


USA.gov is the U.S. government's official web portal to all federal, state and local government web resources and services.